Location: Stuart
(27.1975°N, 80.2528°W)
Time: 20:33:25
(UTC-04:00)

Envisat - Visible Passes

Search period start: 01 April 2020 00:00
Search period end: 11 April 2020 00:00
Orbit: 764 x 766 km, 98.1° (Epoch: 01 April)

Date Brightness Start Highest point End Pass type
(mag) Time Alt. Az. Time Alt. Az. Time Alt. Az.
01 Apr 6.0 20:18:37 10° SW 20:21:53 17° W 20:25:09 10° NW visible
04 Apr 5.7 20:06:35 10° SSW 20:10:30 23° W 20:14:28 10° NW visible
06 Apr 6.3 20:34:37 10° WSW 20:36:08 11° W 20:37:40 10° WNW visible
08 Apr 6.2 06:33:52 10° ENE 06:36:19 13° E 06:38:45 10° ESE visible
09 Apr 6.0 20:21:49 10° SW 20:24:45 15° W 20:27:41 10° WNW visible
